Monroe, NC

7:36 PM EST on December 09, 2019 (GMT -0500)
Monroe

Weather History for KEQY - November, 2019

Change the Weather History Date:

Tuesday, November 12, 2019

  Actual Average (KCLT) Record (KCLT)
Temperature  
Mean Temperature 41 °F -  
Max Temperature 54 °F 61 °F 81 °F (1989)
Min Temperature 28 °F 41 °F 24 °F (1894)
Degree Days  
Heating Degree Days 24    
Moisture  
Dew Point 39 °F    
Average Humidity 79    
Maximum Humidity 93    
Minimum Humidity 51    
Precipitation  
Precipitation 0.66 in - - ()
Sea Level Pressure  
Sea Level Pressure 30.01 in    
Wind  
Wind Speed 8 mph ()    
Max Wind Speed 18 mph    
Max Gust Speed 26 mph    
Visibility 6.9 miles    
Events Rain    
Averages and records for this station are not official NWS values.
T = Trace of Precipitation, MM = Missing Value Source: Averaged Metar Reports

Daily Weather History Graph

Daily Weather History Graph

Search for Another Location

Airport or City:

Astronomy

Nov. 12, 2019 Rise Set
Actual Time 6:53 AM EST 5:18 PM EST
Civil Twilight 6:27 AM EST 5:45 PM EST
Nautical Twilight 5:56 AM EST 6:16 PM EST
Astronomical Twilight 5:26 AM EST 6:46 PM EST
Moon 5:44 PM EST (11/12) 6:45 AM EST (11/12)
Length of Visible Light 11h 18m
Length of Day
10h 25m
Full, 100% of the Moon is Illuminated
Nov 12
Full
Nov 19
Last Quarter
Nov 26
New
Dec 4
First Quarter
Dec 12
Full

Hourly Weather History & Observations

Time (EST) Temp. Windchill Dew Point Humidity Pressure Visibility Wind Dir Wind Speed Gust Speed Precip Events Conditions
12:53 AM 54.0 °F - 39.9 °F 59% 29.99 in 10.0 mi SW 8.1 mph - N/A   Scattered Clouds
1:53 AM 54.0 °F - 41.0 °F 62% 29.97 in 10.0 mi SW 6.9 mph - N/A   Mostly Cloudy
2:53 AM 51.1 °F - 45.0 °F 80% 29.95 in 10.0 mi South 3.5 mph - 0.01 in   Overcast
3:53 AM 52.0 °F - 44.1 °F 74% 29.93 in 10.0 mi SW 6.9 mph - 0.00 in Rain Light Rain
4:53 AM 53.1 °F - 44.1 °F 71% 29.91 in 10.0 mi SSW 6.9 mph - 0.00 in Rain Light Rain
5:53 AM 54.0 °F - 46.0 °F 75% 29.90 in 10.0 mi SW 6.9 mph - 0.00 in   Overcast
6:53 AM 52.0 °F - 48.0 °F 86% 29.90 in 9.0 mi WSW 5.8 mph - 0.00 in   Overcast
7:30 AM 52.0 °F - 48.9 °F 89% 29.87 in 2.5 mi WSW 5.8 mph - 0.01 in Rain Light Rain
7:33 AM 52.0 °F - 48.9 °F 89% 29.87 in 1.8 mi WSW 5.8 mph - 0.02 in Rain Rain
7:40 AM 52.0 °F - 48.9 °F 89% 29.87 in 1.5 mi West 3.5 mph - 0.03 in Rain Rain
7:53 AM 52.0 °F - 50.0 °F 93% 29.91 in 1.2 mi WSW 4.6 mph - 0.08 in Rain Heavy Rain
8:07 AM 52.0 °F - 50.0 °F 93% 29.89 in 1.8 mi West 3.5 mph - 0.03 in Rain Rain
8:16 AM 52.0 °F - 50.0 °F 93% 29.89 in 1.5 mi WSW 3.5 mph - 0.06 in Rain Heavy Rain
8:23 AM 52.0 °F - 50.0 °F 93% 29.90 in 1.2 mi West 4.6 mph - 0.10 in Rain Heavy Rain
8:46 AM 53.1 °F - 51.1 °F 93% 29.91 in 3.0 mi NW 8.1 mph - 0.18 in Rain Rain
8:53 AM 53.1 °F - 51.1 °F 93% 29.95 in 3.0 mi West 4.6 mph - 0.19 in Rain Rain
9:27 AM 53.1 °F - 51.1 °F 93% 29.93 in 3.0 mi NNW 6.9 mph - 0.11 in Rain Heavy Rain
9:41 AM 53.1 °F - 50.0 °F 89% 29.93 in 3.0 mi NNW 9.2 mph - 0.14 in Rain Rain
9:49 AM 53.6 °F - 50.0 °F 88% 29.93 in 3.0 mi NNW 10.4 mph - 0.16 in Rain Rain
9:53 AM 53.1 °F - 50.0 °F 89% 29.96 in 3.0 mi North 9.2 mph - 0.17 in Rain Rain
10:25 AM 46.9 °F - 43.0 °F 86% 29.95 in 7.0 mi North 13.8 mph - 0.05 in Rain Light Rain
10:53 AM 46.0 °F 39.3 °F 42.1 °F 86% 30.00 in 9.0 mi North 16.1 mph - 0.07 in Rain Light Rain
11:36 AM 45.0 °F 38.2 °F 39.9 °F 82% 29.97 in 5.0 mi NNW 15.0 mph 20.7 mph 0.04 in Rain Rain
11:53 AM 43.0 °F 36.0 °F 39.9 °F 89% 30.02 in 5.0 mi NNW 13.8 mph - 0.06 in Rain Rain
12:53 PM 41.0 °F 34.7 °F 36.0 °F 82% 30.02 in 7.0 mi North 10.4 mph - 0.07 in Rain Rain
1:28 PM 39.9 °F 33.4 °F 37.0 °F 89% 29.99 in 10.0 mi NNE 10.4 mph - 0.01 in   Overcast
1:40 PM 39.9 °F 32.1 °F 36.0 °F 86% 29.99 in 10.0 mi NE 13.8 mph - 0.01 in   Overcast
1:53 PM 39.9 °F 32.9 °F 36.0 °F 86% 30.04 in 9.0 mi NNE 11.5 mph - 0.01 in   Overcast
1:59 PM 39.9 °F 32.5 °F 36.0 °F 86% 30.00 in 7.0 mi NNE 12.7 mph - 0.00 in Rain Light Rain
2:38 PM 39.0 °F 30.6 °F 34.0 °F 82% 30.00 in 10.0 mi NNE 15.0 mph - 0.00 in   Overcast
2:53 PM 39.0 °F 31.8 °F 33.1 °F 79% 30.05 in 10.0 mi NNE 11.5 mph 20.7 mph 0.00 in   Overcast
3:53 PM 39.0 °F 31.0 °F 30.0 °F 70% 30.08 in 10.0 mi NNE 13.8 mph 24.2 mph N/A   Overcast
4:53 PM 39.9 °F 35.1 °F 28.9 °F 65% 30.10 in 10.0 mi North 6.9 mph - N/A   Partly Cloudy
5:53 PM 39.0 °F 31.8 °F 27.0 °F 62% 30.13 in 10.0 mi NNE 11.5 mph - N/A   Clear
6:53 PM 36.0 °F 25.6 °F 21.9 °F 57% 30.18 in 10.0 mi NNE 18.4 mph 24.2 mph N/A   Clear
7:53 PM 33.1 °F 23.9 °F 18.0 °F 54% 30.23 in 10.0 mi North 12.7 mph 26.5 mph N/A   Clear
8:53 PM 30.9 °F 20.7 °F 16.0 °F 54% 30.27 in 10.0 mi North 13.8 mph - N/A   Clear
9:53 PM 30.0 °F 19.5 °F 15.1 °F 54% 30.30 in 10.0 mi NNE 13.8 mph - N/A   Clear
10:53 PM 28.9 °F 18.2 °F 14.0 °F 54% 30.31 in 10.0 mi NNE 13.8 mph - N/A   Clear
11:53 PM 28.9 °F 18.2 °F 12.9 °F 51% 30.32 in 10.0 mi North 13.8 mph - N/A   Clear